x

Buoy B01 - Western Maine Shelf (44030) Wave Buoy

4:04 - Mon 25th Jul 2016 All times are EDT. -4 hours from GMT.

  • Sig Wave height 1.6ft
  • Peak Period 6s
  • Wind
    4mph
  • Sea Temp 66°f
  • Ar Temp 65°f
  • Sea Pressure 1013.4mb
  • Buoy B01 - Western Maine Shelf
  • Buoy B01 - Western Maine Shelf

More Historic Weather Station data

Upgrade to MSW Pro to gain access to the past 30 days of data for over 8000 Wavebouys and Weather Stations around the globe.

Join Pro

Comparision Forecast

View Surf forecast
   
Seg 07/25 4:04 1.6ft 6s 4
mph
1013.4mb 66f 65f
3:04 2ft 8s 2 4 mph 1013.6mb 65f 65f
2:04 2ft 6s 2
mph
1013.8mb 66f 66f
1:04 2ft 8s 2
mph
1013.9mb 67f 66f
12:04 1.6ft 8s 4
mph
1014.2mb 67f 67f
Dom 07/24 11:04 1.6ft 8s 7
mph
1014.7mb 67f 67f
10:04 1.6ft 8s 2 4 mph 1014.7mb 67f 67f
9:04 1.6ft 8s 4 9 mph 1014.5mb 67f 68f
8:04 1.6ft 8s 4 7 mph 1013.9mb 68f 68f
7:04 2ft 8s 7 9 mph 1013.3mb 68f 68f
6:04 1.6ft 8s 11 13 mph 1012.8mb 68f 69f
5:04 2ft 8s 11
mph
1012.7mb 68f 70f
4:04 1.6ft 8s 11 13 mph 1012.6mb 68f 70f
3:04 2ft 8s 9
mph
1013mb 68f 70f
2:04 1.6ft 8s 7 9 mph 1013mb 69f 69f
1:04 1.6ft 8s 7 9 mph 1013.1mb 69f 69f
12:04 1.6ft 8s 7 9 mph 1013mb 69f 69f
11:04 1.3ft 8s 4
mph
1013.1mb 67f 69f
10:04 1.3ft 8s 2
mph
1013mb 67f 68f
9:04 1.3ft 8s 4 7 mph 1013.1mb 66f 67f
8:04 1.3ft 8s 4 7 mph 1012.9mb 65f 66f
7:04 1.6ft 8s 9 11 mph 1012.5mb 65f 65f
6:04 2.5ft 8s 16 18 mph 1011.7mb 66f 65f
5:04 2ft 6s 13
mph
1011.3mb 66f 66f
4:04 2.5ft 8s 13
mph
1011.2mb 67f 66f
3:04 2ft 8s 11 13 mph 1010.8mb 67f 65f
2:04 2.5ft 8s 11
mph
1010.3mb 67f 66f
1:04 2ft 8s 9 11 mph 1010.6mb 67f 66f
12:04 1.6ft 8s 9 11 mph 1010.4mb 67f 66f
Sáb 07/23 11:04 1.6ft 8s 9 11 mph 1009.7mb 68f 67f
10:04 1.3ft 8s 11 13 mph 1009.6mb 68f 68f
9:04 0.7ft  -  11 13 mph 1008.7mb 68f 67f
8:04 1ft 2s 4 7 mph 1007.8mb 67f 67f
7:04 1.6ft 8s 16 25 mph 1009.2mb 67f 68f
6:04 1.6ft 6s 13 20 mph 1007.9mb 69f 71f
5:04 1.6ft 6s 7 9 mph 1006.8mb 70f 72f
4:04 1.6ft 6s 9
mph
1005.9mb 70f 72f
3:04 1.6ft 5s 9
mph
1006.2mb 70f 71f
2:04 1.6ft 4s 7 9 mph 1006.5mb 70f 71f
1:04 2ft 5s 7
mph
1006.8mb 69f 71f
12:04 1.6ft 5s 7
mph
1007.2mb 69f 70f
11:04 2ft 5s 7 9 mph 1007.1mb 69f 69f
10:04 2ft 5s 4 7 mph 1007.1mb 68f 69f
9:04 2ft 5s 2 4 mph 1007.3mb 67f 69f
8:04 2.5ft 6s 9
mph
1007.1mb 67f 68f
7:04 2ft 5s 11 13 mph 1006.9mb 67f 68f
6:04 2ft 5s 9
mph
1006.4mb 67f 68f
5:04 2.5ft 6s 4
mph
1006mb 67f 68f
4:04 2.5ft 5s 2 4 mph 1005.9mb 67f 69f
3:04 2.5ft 5s 11 13 mph 1006.1mb 67f 70f
2:04 2.5ft 5s 7
mph
1005.7mb 67f 69f
1:04 2.5ft 5s 7 9 mph 1006.2mb 67f 70f
12:04 2.5ft 6s 11 13 mph 1006.5mb 67f 72f
Sex 07/22 11:04 2.5ft 5s 9 13 mph 1006.4mb 67f 74f
10:04 2.5ft 5s 7 9 mph 1005.7mb 67f 72f
9:04 2.5ft 5s 9
mph
1005.5mb 67f 73f
8:04 2ft 5s 7 9 mph 1005.3mb 67f 73f
7:04 2.5ft 5s 7
mph
1005mb 67f 76f
6:04 3ft 5s 7 9 mph 1005.1mb 67f 76f
5:04 2.5ft 5s 9
mph
1005.3mb 67f 77f
4:04 2.5ft 5s 11 13 mph 1005.3mb 67f 75f
3:04 2.5ft 5s 9 13 mph 1005.6mb 67f 72f
2:04 2.5ft 5s 11
mph
1006.3mb 67f 71f
1:04 2.5ft 5s 7 11 mph 1007mb 67f 70f
12:04 2.5ft 5s 13 16 mph 1007.6mb 67f 70f
11:04 2.5ft 5s 11
mph
1008.7mb 66f 68f
10:04 2.5ft 5s 11 13 mph 1009.3mb 66f 68f
9:04 2ft 5s 13 16 mph 1009.8mb 66f 68f
8:04 2ft 5s 16 18 mph 1010.3mb 66f 68f
7:04 2.5ft 5s 18 22 mph 1010.6mb 66f 68f
6:04 2.5ft 4s 18 20 mph 1010.8mb 66f 68f
5:04 2.5ft 5s 18 20 mph 1010.8mb 66f 68f
4:04 2.5ft 5s 16 18 mph 1011.1mb 67f 68f
3:04 2.5ft 5s 16 18 mph 1011.6mb 67f 69f
2:04 2ft 4s 13
mph
1012.2mb 67f 68f
1:04 1.3ft 4s 13 16 mph 1012.8mb 67f 70f
12:04 1ft 6s 11 13 mph 1013.3mb 67f 68f
Qui 07/21 11:04 0.7ft  -  4 7 mph 1014mb 67f 67f
10:04 0.7ft  -  7
mph
1014.5mb 67f 68f
9:04 1.3ft 8s 11 13 mph 1014.4mb 67f 70f
8:04 1ft 3s 9 11 mph 1014.5mb 67f 69f
7:04 1.6ft 8s 11 13 mph 1015.1mb 67f 69f
6:04 1.6ft 3s 13 16 mph 1015.3mb 67f 70f
5:04 1.3ft 3s 16 18 mph 1016mb 67f 71f
4:04 1.3ft 3s 16 18 mph 1016.1mb 67f 70f
3:04 1ft 3s 13 16 mph 1016.5mb 67f 69f
2:04 1ft 3s 13 16 mph 1016.8mb 67f 68f
1:04 1ft 6s 11 13 mph 1017.7mb 67f 68f
12:04 1ft 8s 9 11 mph 1018.5mb 67f 67f
11:04 0.7ft  -  9 11 mph 1019.4mb 67f 66f